Time,TemperatureF,DewpointF,PressureIn,WindDirection,WindDirectionDegrees,WindSpeedMPH,WindSpeedGustMPH,Humidity,HourlyPrecipIn,Conditions,Clouds,dailyrainin,SoftwareType,DateUTC
2013-01-02 00:00:00,42.2,38.3,30.21,North,352,1.0,6.0,86,0.00,,---,0.00,VWS V14.01,2013-01-02 06:00:00,
2013-01-02 00:02:00,42.2,38.3,30.21,North,352,1.0,1.0,86,0.00,,---,0.00,VWS V14.01,2013-01-02 06:02:00,
2013-01-02 00:07:00,42.2,38.0,30.21,ENE,60,5.0,6.0,85,0.00,,---,0.00,VWS V14.01,2013-01-02 06:07:00,
2013-01-02 00:12:00,42.1,37.9,30.21,NE,44,4.0,6.0,85,0.00,,---,0.00,VWS V14.01,2013-01-02 06:12:00,
2013-01-02 00:17:00,42.1,37.9,30.22,NNW,339,2.0,7.0,85,0.00,,---,0.00,VWS V14.01,2013-01-02 06:17:00,
2013-01-02 00:22:00,42.1,37.6,30.22,NE,48,5.0,8.0,84,0.00,,---,0.00,VWS V14.01,2013-01-02 06:22:00,
2013-01-02 00:27:00,42.0,37.2,30.22,NE,54,1.0,8.0,83,0.00,,---,0.00,VWS V14.01,2013-01-02 06:27:00,
2013-01-02 00:30:00,42.0,37.2,30.22,ENE,58,8.0,8.0,83,0.00,,---,0.00,VWS V14.01,2013-01-02 06:30:00,
2013-01-02 00:32:00,42.0,36.9,30.22,NE,39,4.0,8.0,82,0.00,,---,0.00,VWS V14.01,2013-01-02 06:32:00,
2013-01-02 00:37:00,41.9,36.8,30.22,ENE,65,0.0,9.0,82,0.00,,---,0.00,VWS V14.01,2013-01-02 06:37:00,
2013-01-02 00:42:00,41.8,36.7,30.21,ENE,64,3.0,11.0,82,0.00,,---,0.00,VWS V14.01,2013-01-02 06:42:00,
2013-01-02 00:47:00,41.7,36.6,30.21,NNW,344,8.0,11.0,82,0.00,,---,0.00,VWS V14.01,2013-01-02 06:47:00,
2013-01-02 00:52:00,41.6,36.5,30.21,North,11,4.0,11.0,82,0.00,,---,0.00,VWS V14.01,2013-01-02 06:52:00,
2013-01-02 00:57:00,41.5,36.4,30.20,ENE,67,2.0,11.0,82,0.00,,---,0.00,VWS V14.01,2013-01-02 06:57:00,
2013-01-02 01:00:00,41.5,36.4,30.21,NNE,32,6.0,11.0,82,0.00,,---,0.00,VWS V14.01,2013-01-02 07:00:00,
2013-01-02 01:02:00,41.4,36.3,30.21,NW,314,5.0,6.0,82,0.00,,---,0.00,VWS V14.01,2013-01-02 07:02:00,
2013-01-02 01:07:00,41.3,36.2,30.20,NE,56,3.0,11.0,82,0.00,,---,0.00,VWS V14.01,2013-01-02 07:07:00,
2013-01-02 01:12:00,41.3,36.2,30.21,NE,56,5.0,11.0,82,0.00,,---,0.00,VWS V14.01,2013-01-02 07:12:00,
2013-01-02 01:17:00,41.3,35.9,30.22,NNE,22,3.0,11.0,81,0.00,,---,0.00,VWS V14.01,2013-01-02 07:17:00,
2013-01-02 01:22:00,41.2,36.1,30.22,SE,136,2.0,11.0,82,0.00,,---,0.00,VWS V14.01,2013-01-02 07:22:00,
2013-01-02 01:27:00,41.1,36.0,30.22,North,11,1.0,11.0,82,0.00,,---,0.00,VWS V14.01,2013-01-02 07:27:00,
2013-01-02 01:30:00,41.1,36.0,30.22,North,359,4.0,11.0,82,0.00,,---,0.00,VWS V14.01,2013-01-02 07:30:00,
2013-01-02 01:32:00,41.0,35.9,30.21,NE,35,7.0,10.0,82,0.00,,---,0.00,VWS V14.01,2013-01-02 07:32:00,
2013-01-02 01:37:00,40.9,35.8,30.22,East,79,2.0,10.0,82,0.00,,---,0.00,VWS V14.01,2013-01-02 07:37:00,
2013-01-02 01:42:00,40.8,35.4,30.22,NNE,30,5.0,10.0,81,0.00,,---,0.00,VWS V14.01,2013-01-02 07:42:00,
2013-01-02 01:47:00,40.7,35.6,30.22,ENE,63,2.0,10.0,82,0.00,,---,0.00,VWS V14.01,2013-01-02 07:47:00,
2013-01-02 01:52:00,40.6,35.5,30.23,NNE,32,2.0,10.0,82,0.00,,---,0.00,VWS V14.01,2013-01-02 07:52:00,
2013-01-02 01:57:00,40.6,35.5,30.23,NE,34,2.0,10.0,82,0.00,,---,0.00,VWS V14.01,2013-01-02 07:57:00,
2013-01-02 02:00:00,40.6,35.5,30.23,North,360,5.0,10.0,82,0.00,,---,0.00,VWS V14.01,2013-01-02 08:00:00,
2013-01-02 02:02:00,40.5,35.5,30.23,NNE,30,3.0,5.0,82,0.00,,---,0.00,VWS V14.01,2013-01-02 08:02:00,
2013-01-02 02:07:00,40.4,35.3,30.23,NE,41,2.0,5.0,82,0.00,,---,0.00,VWS V14.01,2013-01-02 08:07:00,
2013-01-02 02:12:00,40.4,35.3,30.23,NNE,20,1.0,5.0,82,0.00,,---,0.00,VWS V14.01,2013-01-02 08:12:00,
2013-01-02 02:17:00,40.3,34.9,30.23,NNE,29,5.0,7.0,81,0.00,,---,0.00,VWS V14.01,2013-01-02 08:17:00,
2013-01-02 02:22:00,40.3,34.9,30.24,NW,324,0.0,7.0,81,0.00,,---,0.00,VWS V14.01,2013-01-02 08:22:00,
2013-01-02 02:27:00,40.2,34.8,30.24,NNW,346,3.0,7.0,81,0.00,,---,0.00,VWS V14.01,2013-01-02 08:27:00,
2013-01-02 02:30:00,40.1,34.4,30.24,NNW,343,2.0,7.0,80,0.00,,---,0.00,VWS V14.01,2013-01-02 08:30:00,
2013-01-02 02:32:00,40.1,34.1,30.24,North,358,4.0,8.0,79,0.00,,---,0.00,VWS V14.01,2013-01-02 08:32:00,
2013-01-02 02:37:00,40.0,33.7,30.24,North,356,2.0,8.0,78,0.00,,---,0.00,VWS V14.01,2013-01-02 08:37:00,
2013-01-02 02:42:00,39.9,33.6,30.24,NNW,338,2.0,8.0,78,0.00,,---,0.00,VWS V14.01,2013-01-02 08:42:00,
2013-01-02 02:47:00,39.8,33.5,30.23,NW,307,3.0,8.0,78,0.00,,---,0.00,VWS V14.01,2013-01-02 08:47:00,
2013-01-02 02:52:00,39.7,33.1,30.24,NNW,347,2.0,8.0,77,0.00,,---,0.00,VWS V14.01,2013-01-02 08:52:00,
2013-01-02 02:57:00,39.6,33.3,30.24,ENE,74,4.0,8.0,78,0.00,,---,0.00,VWS V14.01,2013-01-02 08:57:00,
2013-01-02 03:00:00,39.5,32.9,30.24,NNW,345,5.0,8.0,77,0.00,,---,0.00,VWS V14.01,2013-01-02 09:00:00,
2013-01-02 03:02:00,39.5,32.9,30.24,NE,34,3.0,5.0,77,0.00,,---,0.00,VWS V14.01,2013-01-02 09:02:00,
2013-01-02 03:07:00,39.5,32.9,30.24,NNW,335,8.0,10.0,77,0.00,,---,0.00,VWS V14.01,2013-01-02 09:07:00,
2013-01-02 03:12:00,39.4,32.8,30.23,NE,37,6.0,10.0,77,0.00,,---,0.00,VWS V14.01,2013-01-02 09:12:00,
2013-01-02 03:17:00,39.3,32.7,30.23,NE,53,4.0,10.0,77,0.00,,---,0.00,VWS V14.01,2013-01-02 09:17:00,
2013-01-02 03:22:00,39.3,32.4,30.24,NE,47,6.0,11.0,76,0.00,,---,0.00,VWS V14.01,2013-01-02 09:22:00,
2013-01-02 03:27:00,39.2,32.3,30.24,NE,35,11.0,11.0,76,0.00,,---,0.00,VWS V14.01,2013-01-02 09:27:00,
2013-01-02 03:30:00,39.2,32.3,30.24,East,101,3.0,11.0,76,0.00,,---,0.00,VWS V14.01,2013-01-02 09:30:00,
2013-01-02 03:31:00,39.2,32.3,30.24,North,356,6.0,9.0,76,0.00,,---,0.00,VWS V14.01,2013-01-02 09:31:00,
2013-01-02 03:36:00,39.1,32.2,30.24,NE,56,4.0,9.0,76,0.00,,---,0.00,VWS V14.01,2013-01-02 09:36:00,
2013-01-02 03:41:00,39.0,32.1,30.24,NNE,25,8.0,9.0,76,0.00,,---,0.00,VWS V14.01,2013-01-02 09:41:00,
2013-01-02 03:46:00,38.9,32.0,30.24,NNE,32,5.0,9.0,76,0.00,,---,0.00,VWS V14.01,2013-01-02 09:46:00,
2013-01-02 03:51:00,38.9,32.0,30.24,NNE,17,5.0,12.0,76,0.00,,---,0.00,VWS V14.01,2013-01-02 09:51:00,
2013-01-02 03:56:00,38.8,31.9,30.24,NW,323,6.0,12.0,76,0.00,,---,0.00,VWS V14.01,2013-01-02 09:56:00,
2013-01-02 04:00:00,38.8,31.9,30.24,NW,322,2.0,12.0,76,0.00,,---,0.00,VWS V14.01,2013-01-02 10:00:00,
2013-01-02 04:01:00,38.7,31.8,30.24,North,350,4.0,7.0,76,0.00,,---,0.00,VWS V14.01,2013-01-02 10:01:00,
2013-01-02 04:06:00,38.7,31.8,30.24,North,11,2.0,8.0,76,0.00,,---,0.00,VWS V14.01,2013-01-02 10:06:00,
2013-01-02 04:11:00,38.7,31.8,30.24,NNE,13,1.0,9.0,76,0.00,,---,0.00,VWS V14.01,2013-01-02 10:11:00,
2013-01-02 04:16:00,38.6,31.7,30.23,NNW,346,3.0,9.0,76,0.00,,---,0.00,VWS V14.01,2013-01-02 10:16:00,
2013-01-02 04:21:00,38.5,31.9,30.24,NE,34,3.0,9.0,77,0.00,,---,0.00,VWS V14.01,2013-01-02 10:21:00,
2013-01-02 04:26:00,38.5,31.6,30.24,ENE,72,1.0,9.0,76,0.00,,---,0.00,VWS V14.01,2013-01-02 10:26:00,
2013-01-02 04:30:00,38.5,31.6,30.25,NNE,25,8.0,9.0,76,0.00,,---,0.00,VWS V14.01,2013-01-02 10:30:00,
2013-01-02 04:31:00,38.5,31.6,30.25,NNW,347,4.0,8.0,76,0.00,,---,0.00,VWS V14.01,2013-01-02 10:31:00,
2013-01-02 04:36:00,38.5,31.6,30.24,NNE,29,4.0,8.0,76,0.00,,---,0.00,VWS V14.01,2013-01-02 10:36:00,
2013-01-02 04:41:00,38.4,31.5,30.24,NNE,13,0.0,8.0,76,0.00,,---,0.00,VWS V14.01,2013-01-02 10:41:00,
2013-01-02 04:46:00,38.4,31.5,30.24,North,4,5.0,8.0,76,0.00,,---,0.00,VWS V14.01,2013-01-02 10:46:00,
2013-01-02 04:51:00,38.3,31.4,30.24,NNE,26,3.0,8.0,76,0.00,,---,0.00,VWS V14.01,2013-01-02 10:51:00,
2013-01-02 04:56:00,38.3,31.4,30.24,North,352,4.0,8.0,76,0.00,,---,0.00,VWS V14.01,2013-01-02 10:56:00,
2013-01-02 05:00:00,38.3,31.4,30.24,NE,53,4.0,8.0,76,0.00,,---,0.00,VWS V14.01,2013-01-02 11:00:00,
2013-01-02 05:01:00,38.2,31.3,30.24,NNE,30,3.0,7.0,76,0.00,,---,0.00,VWS V14.01,2013-01-02 11:01:00,
2013-01-02 05:06:00,38.2,31.0,30.24,North,354,4.0,8.0,75,0.00,,---,0.00,VWS V14.01,2013-01-02 11:06:00,
2013-01-02 05:11:00,38.2,31.3,30.24,NW,326,2.0,8.0,76,0.00,,---,0.00,VWS V14.01,2013-01-02 11:11:00,
2013-01-02 05:16:00,38.1,31.2,30.23,North,8,5.0,8.0,76,0.00,,---,0.00,VWS V14.01,2013-01-02 11:16:00,
2013-01-02 05:21:00,38.1,30.9,30.23,ENE,61,3.0,11.0,75,0.00,,---,0.00,VWS V14.01,2013-01-02 11:21:00,
2013-01-02 05:26:00,38.1,30.6,30.23,NNW,338,4.0,11.0,74,0.00,,---,0.00,VWS V14.01,2013-01-02 11:26:00,
2013-01-02 05:30:00,38.1,30.6,30.23,ENE,70,9.0,11.0,74,0.00,,---,0.00,VWS V14.01,2013-01-02 11:30:00,
2013-01-02 05:31:00,38.0,30.5,30.23,NNE,22,2.0,9.0,74,0.00,,---,0.00,VWS V14.01,2013-01-02 11:31:00,
2013-01-02 05:36:00,38.0,30.1,30.23,NNE,32,2.0,9.0,73,0.00,,---,0.00,VWS V14.01,2013-01-02 11:36:00,
2013-01-02 05:41:00,37.9,30.0,30.23,NE,50,2.0,9.0,73,0.00,,---,0.00,VWS V14.01,2013-01-02 11:41:00,
2013-01-02 05:46:00,37.9,30.4,30.24,SSE,160,0.0,9.0,74,0.00,,---,0.00,VWS V14.01,2013-01-02 11:46:00,
2013-01-02 05:51:00,37.8,29.9,30.24,North,6,3.0,10.0,73,0.00,,---,0.00,VWS V14.01,2013-01-02 11:51:00,
2013-01-02 05:56:00,37.8,30.3,30.24,NNE,17,3.0,10.0,74,0.00,,---,0.00,VWS V14.01,2013-01-02 11:56:00,
2013-01-02 06:00:00,37.8,30.3,30.24,NE,37,7.0,10.0,74,0.00,,---,0.00,VWS V14.01,2013-01-02 12:00:00,
2013-01-02 06:01:00,37.8,29.9,30.24,NNW,336,2.0,7.0,73,0.00,,---,0.00,VWS V14.01,2013-01-02 12:01:00,
2013-01-02 06:06:00,37.7,29.8,30.25,ENE,68,3.0,7.0,73,0.00,,---,0.00,VWS V14.01,2013-01-02 12:06:00,
2013-01-02 06:11:00,37.7,29.8,30.24,NNW,329,2.0,9.0,73,0.00,,---,0.00,VWS V14.01,2013-01-02 12:11:00,
2013-01-02 06:16:00,37.7,29.8,30.24,NNE,19,5.0,14.0,73,0.00,,---,0.00,VWS V14.01,2013-01-02 12:16:00,
2013-01-02 06:21:00,37.6,29.7,30.24,NNE,25,6.0,14.0,73,0.00,,---,0.00,VWS V14.01,2013-01-02 12:21:00,
2013-01-02 06:26:00,37.6,29.7,30.24,NE,36,3.0,14.0,73,0.00,,---,0.00,VWS V14.01,2013-01-02 12:26:00,
2013-01-02 06:30:00,37.6,29.7,30.24,North,359,7.0,14.0,73,0.00,,---,0.00,VWS V14.01,2013-01-02 12:30:00,
2013-01-02 06:31:00,37.6,29.7,30.24,NW,316,6.0,7.0,73,0.00,,---,0.00,VWS V14.01,2013-01-02 12:31:00,
2013-01-02 06:36:00,37.5,29.6,30.25,ENE,59,5.0,11.0,73,0.00,,---,0.00,VWS V14.01,2013-01-02 12:36:00,
2013-01-02 06:41:00,37.5,29.6,30.26,NE,46,4.0,11.0,73,0.00,,---,0.00,VWS V14.01,2013-01-02 12:41:00,
2013-01-02 06:46:00,37.5,29.6,30.26,North,4,8.0,11.0,73,0.00,,---,0.00,VWS V14.01,2013-01-02 12:46:00,
2013-01-02 06:51:00,37.5,29.6,30.26,North,350,4.0,11.0,73,0.00,,---,0.00,VWS V14.01,2013-01-02 12:51:00,
2013-01-02 06:56:00,37.5,29.6,30.26,WNW,291,3.0,11.0,73,0.00,,---,0.00,VWS V14.01,2013-01-02 12:56:00,
2013-01-02 07:00:00,37.5,29.6,30.26,North,358,2.0,11.0,73,0.00,,---,0.00,VWS V14.01,2013-01-02 13:00:00,
2013-01-02 07:01:00,37.5,30.0,30.26,North,356,4.0,4.0,74,0.00,,---,0.00,VWS V14.01,2013-01-02 13:01:00,
2013-01-02 07:06:00,37.5,29.6,30.27,WNW,302,3.0,10.0,73,0.00,,---,0.00,VWS V14.01,2013-01-02 13:06:00,
2013-01-02 07:11:00,37.4,29.5,30.27,North,356,4.0,10.0,73,0.00,,---,0.00,VWS V14.01,2013-01-02 13:11:00,
2013-01-02 07:16:00,37.4,29.9,30.27,North,11,3.0,10.0,74,0.00,,---,0.00,VWS V14.01,2013-01-02 13:16:00,
2013-01-02 07:21:00,37.4,29.5,30.27,NNE,23,5.0,10.0,73,0.00,,---,0.00,VWS V14.01,2013-01-02 13:21:00,
2013-01-02 07:26:00,37.3,29.8,30.27,North,3,7.0,10.0,74,0.00,,---,0.00,VWS V14.01,2013-01-02 13:26:00,
2013-01-02 07:30:00,37.4,29.5,30.27,NE,41,6.0,10.0,73,0.00,,---,0.00,VWS V14.01,2013-01-02 13:30:00,
2013-01-02 07:31:00,37.4,29.5,30.27,NNE,30,3.0,6.0,73,0.00,,---,0.00,VWS V14.01,2013-01-02 13:31:00,
2013-01-02 07:36:00,37.4,29.5,30.27,North,6,1.0,11.0,73,0.00,,---,0.00,VWS V14.01,2013-01-02 13:36:00,
2013-01-02 07:41:00,37.4,29.2,30.27,North,6,5.0,11.0,72,0.00,,---,0.00,VWS V14.01,2013-01-02 13:41:00,
2013-01-02 07:46:00,37.4,29.2,30.27,North,356,3.0,11.0,72,0.00,,---,0.00,VWS V14.01,2013-01-02 13:46:00,
2013-01-02 07:51:00,37.4,29.2,30.27,NNE,12,2.0,11.0,72,0.00,,---,0.00,VWS V14.01,2013-01-02 13:51:00,
2013-01-02 07:56:00,37.5,29.0,30.27,ENE,64,6.0,13.0,71,0.00,,---,0.00,VWS V14.01,2013-01-02 13:56:00,
2013-01-02 08:00:00,37.5,29.0,30.27,North,352,7.0,14.0,71,0.00,,---,0.00,VWS V14.01,2013-01-02 14:00:00,
2013-01-02 08:01:00,37.5,29.0,30.27,NE,34,5.0,10.0,71,0.00,,---,0.00,VWS V14.01,2013-01-02 14:01:00,
2013-01-02 08:06:00,37.5,29.0,30.27,North,351,4.0,15.0,71,0.00,,---,0.00,VWS V14.01,2013-01-02 14:06:00,
2013-01-02 08:11:00,37.5,29.0,30.28,North,6,2.0,15.0,71,0.00,,---,0.00,VWS V14.01,2013-01-02 14:11:00,
2013-01-02 08:16:00,37.5,29.3,30.28,NE,56,4.0,15.0,72,0.00,,---,0.00,VWS V14.01,2013-01-02 14:16:00,
2013-01-02 08:21:00,37.6,29.4,30.28,NE,51,3.0,15.0,72,0.00,,---,0.00,VWS V14.01,2013-01-02 14:21:00,
2013-01-02 08:26:00,37.6,29.4,30.28,NNE,20,7.0,15.0,72,0.00,,---,0.00,VWS V14.01,2013-01-02 14:26:00,
2013-01-02 08:30:00,37.7,29.5,30.28,NE,34,4.0,15.0,72,0.00,,---,0.00,VWS V14.01,2013-01-02 14:30:00,
2013-01-02 08:31:00,37.7,29.5,30.28,NE,35,4.0,7.0,72,0.00,,---,0.00,VWS V14.01,2013-01-02 14:31:00,
2013-01-02 08:36:00,37.8,29.3,30.28,WNW,295,3.0,10.0,71,0.00,,---,0.00,VWS V14.01,2013-01-02 14:36:00,
2013-01-02 08:41:00,37.8,29.3,30.28,NNE,30,3.0,10.0,71,0.00,,---,0.00,VWS V14.01,2013-01-02 14:41:00,
2013-01-02 08:46:00,37.8,29.3,30.29,ESE,120,1.0,10.0,71,0.00,,---,0.00,VWS V14.01,2013-01-02 14:46:00,
2013-01-02 08:51:00,38.0,29.5,30.30,NNW,338,1.0,10.0,71,0.00,,---,0.00,VWS V14.01,2013-01-02 14:51:00,
2013-01-02 08:56:00,38.1,29.5,30.30,North,358,2.0,10.0,71,0.00,,---,0.00,VWS V14.01,2013-01-02 14:56:00,
2013-01-02 09:00:00,38.1,29.5,30.30,NNW,340,1.0,10.0,71,0.00,,---,0.00,VWS V14.01,2013-01-02 15:00:00,
2013-01-02 09:01:00,38.2,29.6,30.30,NNE,25,5.0,6.0,71,0.00,,---,0.00,VWS V14.01,2013-01-02 15:01:00,
2013-01-02 09:06:00,38.3,30.1,30.30,NW,323,1.0,7.0,72,0.00,,---,0.00,VWS V14.01,2013-01-02 15:06:00,
2013-01-02 09:11:00,38.4,30.5,30.30,NNE,20,1.0,7.0,73,0.00,,---,0.00,VWS V14.01,2013-01-02 15:11:00,
2013-01-02 09:16:00,38.7,30.5,30.30,NNE,22,2.0,7.0,72,0.00,,---,0.00,VWS V14.01,2013-01-02 15:16:00,
2013-01-02 09:21:00,38.8,30.2,30.30,NNW,348,3.0,7.0,71,0.00,,---,0.00,VWS V14.01,2013-01-02 15:21:00,
2013-01-02 09:26:00,39.0,30.4,30.30,North,11,2.0,7.0,71,0.00,,---,0.00,VWS V14.01,2013-01-02 15:26:00,
2013-01-02 09:30:00,39.2,30.6,30.31,NNE,15,2.0,7.0,71,0.00,,---,0.00,VWS V14.01,2013-01-02 15:30:00,
2013-01-02 09:31:00,39.3,31.0,30.30,NNW,342,3.0,5.0,72,0.00,,---,0.00,VWS V14.01,2013-01-02 15:31:00,
2013-01-02 09:36:00,39.4,29.7,30.31,NNE,33,4.0,10.0,68,0.00,,---,0.00,VWS V14.01,2013-01-02 15:36:00,
2013-01-02 09:41:00,39.3,29.6,30.31,NW,317,4.0,10.0,68,0.00,,---,0.00,VWS V14.01,2013-01-02 15:41:00,
2013-01-02 09:46:00,39.3,30.0,30.31,North,359,6.0,10.0,69,0.00,,---,0.00,VWS V14.01,2013-01-02 15:46:00,
2013-01-02 09:51:00,39.3,29.6,30.31,NE,49,6.0,11.0,68,0.00,,---,0.00,VWS V14.01,2013-01-02 15:51:00,
2013-01-02 09:56:00,39.3,30.0,30.31,NE,37,7.0,11.0,69,0.00,,---,0.00,VWS V14.01,2013-01-02 15:56:00,
2013-01-02 10:00:00,39.4,29.7,30.31,NE,45,1.0,11.0,68,0.00,,---,0.00,VWS V14.01,2013-01-02 16:00:00,
2013-01-02 10:01:00,39.5,30.2,30.32,ENE,69,2.0,3.0,69,0.00,,---,0.00,VWS V14.01,2013-01-02 16:01:00,
2013-01-02 10:06:00,39.7,30.0,30.32,NE,43,2.0,8.0,68,0.00,,---,0.00,VWS V14.01,2013-01-02 16:06:00,
2013-01-02 10:11:00,39.7,30.0,30.31,North,356,2.0,8.0,68,0.00,,---,0.00,VWS V14.01,2013-01-02 16:11:00,
2013-01-02 10:16:00,39.9,30.6,30.31,NE,53,1.0,8.0,69,0.00,,---,0.00,VWS V14.01,2013-01-02 16:16:00,
2013-01-02 10:21:00,39.9,29.9,30.32,NE,56,3.0,8.0,67,0.00,,---,0.00,VWS V14.01,2013-01-02 16:21:00,
2013-01-02 10:26:00,40.0,30.3,30.31,NNE,30,1.0,8.0,68,0.00,,---,0.00,VWS V14.01,2013-01-02 16:26:00,
2013-01-02 10:30:00,40.1,30.4,30.30,NNE,29,4.0,8.0,68,0.00,,---,0.00,VWS V14.01,2013-01-02 16:30:00,
2013-01-02 10:31:00,40.1,30.0,30.31,NW,315,2.0,8.0,67,0.00,,---,0.00,VWS V14.01,2013-01-02 16:31:00,
2013-01-02 10:36:00,39.9,30.2,30.31,NNE,26,3.0,8.0,68,0.00,,---,0.00,VWS V14.01,2013-01-02 16:36:00,
2013-01-02 10:41:00,39.8,29.8,30.31,NNE,32,4.0,8.0,67,0.00,,---,0.00,VWS V14.01,2013-01-02 16:41:00,
2013-01-02 10:46:00,39.9,29.9,30.31,NNW,344,1.0,8.0,67,0.00,,---,0.00,VWS V14.01,2013-01-02 16:46:00,
2013-01-02 10:51:00,40.0,30.3,30.30,ENE,67,3.0,8.0,68,0.00,,---,0.00,VWS V14.01,2013-01-02 16:51:00,
2013-01-02 10:56:00,40.0,30.3,30.30,NNE,31,3.0,8.0,68,0.00,,---,0.00,VWS V14.01,2013-01-02 16:56:00,
2013-01-02 11:00:00,40.1,30.0,30.30,NNE,33,3.0,8.0,67,0.00,,---,0.00,VWS V14.01,2013-01-02 17:00:00,
2013-01-02 11:01:00,40.1,30.0,30.30,East,94,5.0,7.0,67,0.00,,---,0.00,VWS V14.01,2013-01-02 17:01:00,
2013-01-02 11:06:00,40.4,29.6,30.31,NNE,30,1.0,7.0,65,0.00,,---,0.00,VWS V14.01,2013-01-02 17:06:00,
2013-01-02 11:11:00,40.4,30.0,30.30,North,5,3.0,8.0,66,0.00,,---,0.00,VWS V14.01,2013-01-02 17:11:00,
2013-01-02 11:16:00,40.5,29.7,30.30,NE,51,1.0,8.0,65,0.00,,---,0.00,VWS V14.01,2013-01-02 17:16:00,
2013-01-02 11:21:00,40.6,29.8,30.30,NW,312,1.0,8.0,65,0.00,,---,0.00,VWS V14.01,2013-01-02 17:21:00,
2013-01-02 11:26:00,40.7,29.5,30.30,ENE,70,3.0,8.0,64,0.00,,---,0.00,VWS V14.01,2013-01-02 17:26:00,
2013-01-02 11:30:00,40.8,29.2,30.30,NW,323,8.0,10.0,63,0.00,,---,0.00,VWS V14.01,2013-01-02 17:30:00,
2013-01-02 11:31:00,40.8,29.6,30.30,NNE,20,2.0,8.0,64,0.00,,---,0.00,VWS V14.01,2013-01-02 17:31:00,
2013-01-02 11:36:00,40.8,29.6,30.30,North,352,3.0,8.0,64,0.00,,---,0.00,VWS V14.01,2013-01-02 17:36:00,
2013-01-02 11:41:00,40.9,30.1,30.30,NNW,342,2.0,8.0,65,0.00,,---,0.00,VWS V14.01,2013-01-02 17:41:00,
2013-01-02 11:46:00,40.9,30.1,30.31,NW,324,2.0,8.0,65,0.00,,---,0.00,VWS V14.01,2013-01-02 17:46:00,
2013-01-02 11:51:00,41.0,30.1,30.31,NNE,26,2.0,8.0,65,0.00,,---,0.00,VWS V14.01,2013-01-02 17:51:00,
2013-01-02 11:56:00,41.2,30.3,30.31,NNW,338,1.0,8.0,65,0.00,,---,0.00,VWS V14.01,2013-01-02 17:56:00,
2013-01-02 12:00:00,41.3,30.8,30.30,NNW,334,2.0,8.0,66,0.00,,---,0.00,VWS V14.01,2013-01-02 18:00:00,
2013-01-02 12:01:00,41.3,30.4,30.30,NE,45,2.0,4.0,65,0.00,,---,0.00,VWS V14.01,2013-01-02 18:01:00,
2013-01-02 12:06:00,41.3,30.1,30.30,NNE,15,4.0,7.0,64,0.00,,---,0.00,VWS V14.01,2013-01-02 18:06:00,
2013-01-02 12:11:00,41.3,30.1,30.29,North,1,4.0,8.0,64,0.00,,---,0.00,VWS V14.01,2013-01-02 18:11:00,
2013-01-02 12:16:00,41.3,30.1,30.29,WNW,302,4.0,8.0,64,0.00,,---,0.00,VWS V14.01,2013-01-02 18:16:00,
2013-01-02 12:21:00,41.4,29.8,30.29,NE,46,1.0,8.0,63,0.00,,---,0.00,VWS V14.01,2013-01-02 18:21:00,
2013-01-02 12:26:00,41.5,29.9,30.28,NNE,23,5.0,8.0,63,0.00,,---,0.00,VWS V14.01,2013-01-02 18:26:00,
2013-01-02 12:30:00,41.5,29.9,30.27,North,358,2.0,8.0,63,0.00,,---,0.00,VWS V14.01,2013-01-02 18:30:00,
2013-01-02 12:31:00,41.6,30.0,30.27,North,5,5.0,6.0,63,0.00,,---,0.00,VWS V14.01,2013-01-02 18:31:00,
2013-01-02 12:36:00,41.6,30.0,30.27,NNW,329,1.0,6.0,63,0.00,,---,0.00,VWS V14.01,2013-01-02 18:36:00,
2013-01-02 12:41:00,41.7,30.0,30.27,WNW,291,1.0,6.0,63,0.00,,---,0.00,VWS V14.01,2013-01-02 18:41:00,
2013-01-02 12:49:00,41.9,30.2,30.26,NNW,348,2.0,2.0,63,0.00,,---,0.00,VWS V14.01,2013-01-02 18:49:00,
2013-01-02 13:00:00,41.7,30.0,30.27,NNW,338,2.0,6.0,63,0.00,,---,0.00,VWS V14.01,2013-01-02 19:00:00,
2013-01-02 13:50:00,41.9,30.2,30.25,NE,53,1.0,2.0,63,0.00,,---,0.00,VWS V14.01,2013-01-02 19:50:00,
2013-01-02 13:55:00,42.1,30.4,30.24,ENE,68,2.0,4.0,63,0.00,,---,0.00,VWS V14.01,2013-01-02 19:55:00,
2013-01-02 14:00:00,42.2,30.5,30.24,NW,322,2.0,2.0,63,0.00,,---,0.00,VWS V14.01,2013-01-02 20:00:00,
2013-01-02 14:05:00,42.3,30.6,30.24,NE,47,3.0,7.0,63,0.00,,---,0.00,VWS V14.01,2013-01-02 20:05:00,
2013-01-02 14:10:00,42.2,30.5,30.23,NNE,24,4.0,7.0,63,0.00,,---,0.00,VWS V14.01,2013-01-02 20:10:00,
2013-01-02 14:15:00,42.4,30.3,30.24,NW,326,1.0,7.0,62,0.00,,---,0.00,VWS V14.01,2013-01-02 20:15:00,
2013-01-02 14:20:00,42.6,30.5,30.24,North,6,1.0,7.0,62,0.00,,---,0.00,VWS V14.01,2013-01-02 20:20:00,
2013-01-02 14:25:00,42.7,30.6,30.23,ENE,72,4.0,7.0,62,0.00,,---,0.00,VWS V14.01,2013-01-02 20:25:00,
2013-01-02 14:30:00,42.9,30.8,30.23,NNE,23,0.0,2.0,62,0.00,,---,0.00,VWS V14.01,2013-01-02 20:30:00,
2013-01-02 14:35:00,43.1,31.0,30.23,NE,56,2.0,4.0,62,0.00,,---,0.00,VWS V14.01,2013-01-02 20:35:00,
2013-01-02 14:40:00,43.2,31.1,30.23,NW,304,1.0,6.0,62,0.00,,---,0.00,VWS V14.01,2013-01-02 20:40:00,
2013-01-02 14:45:00,43.2,31.1,30.23,NE,54,1.0,6.0,62,0.00,,---,0.00,VWS V14.01,2013-01-02 20:45:00,
2013-01-02 14:50:00,43.2,31.1,30.22,NW,316,1.0,6.0,62,0.00,,---,0.00,VWS V14.01,2013-01-02 20:50:00,
2013-01-02 14:55:00,43.3,31.2,30.23,NNE,22,3.0,6.0,62,0.00,,---,0.00,VWS V14.01,2013-01-02 20:55:00,
2013-01-02 15:00:00,43.4,30.9,30.24,North,11,1.0,3.0,61,0.00,,---,0.00,VWS V14.01,2013-01-02 21:00:00,
2013-01-02 15:05:00,43.4,30.9,30.24,North,352,1.0,4.0,61,0.00,,---,0.00,VWS V14.01,2013-01-02 21:05:00,
2013-01-02 15:10:00,43.5,30.5,30.24,SSE,156,0.0,4.0,60,0.00,,---,0.00,VWS V14.01,2013-01-02 21:10:00,
2013-01-02 15:15:00,43.5,30.5,30.23,NNE,18,1.0,5.0,60,0.00,,---,0.00,VWS V14.01,2013-01-02 21:15:00,
2013-01-02 15:20:00,43.6,30.6,30.23,NE,52,2.0,5.0,60,0.00,,---,0.00,VWS V14.01,2013-01-02 21:20:00,
2013-01-02 15:25:00,43.7,30.7,30.24,NE,52,1.0,1.0,60,0.00,,---,0.00,VWS V14.01,2013-01-02 21:25:00,
2013-01-02 15:30:00,43.8,30.4,30.24,NW,322,2.0,4.0,59,0.00,,---,0.00,VWS V14.01,2013-01-02 21:30:00,
2013-01-02 15:35:00,43.8,30.4,30.23,North,7,3.0,8.0,59,0.00,,---,0.00,VWS V14.01,2013-01-02 21:35:00,
2013-01-02 15:40:00,43.9,30.1,30.23,NE,41,1.0,8.0,58,0.00,,---,0.00,VWS V14.01,2013-01-02 21:40:00,
2013-01-02 15:45:00,44.0,30.2,30.23,WNW,302,1.0,8.0,58,0.00,,---,0.00,VWS V14.01,2013-01-02 21:45:00,
2013-01-02 15:50:00,44.1,30.3,30.24,NE,47,7.0,8.0,58,0.00,,---,0.00,VWS V14.01,2013-01-02 21:50:00,
2013-01-02 15:55:00,44.2,30.4,30.24,NE,44,1.0,9.0,58,0.00,,---,0.00,VWS V14.01,2013-01-02 21:55:00,
2013-01-02 16:00:00,44.3,30.0,30.24,NW,323,4.0,7.0,57,0.00,,---,0.00,VWS V14.01,2013-01-02 22:00:00,
2013-01-02 16:05:00,44.2,30.0,30.24,NNW,334,1.0,8.0,57,0.00,,---,0.00,VWS V14.01,2013-01-02 22:05:00,
2013-01-02 16:10:00,44.2,30.0,30.24,NNE,16,3.0,8.0,57,0.00,,---,0.00,VWS V14.01,2013-01-02 22:10:00,
2013-01-02 16:15:00,44.2,30.0,30.24,NNE,20,3.0,8.0,57,0.00,,---,0.00,VWS V14.01,2013-01-02 22:15:00,
2013-01-02 16:20:00,44.2,30.4,30.24,NNE,30,3.0,8.0,58,0.00,,---,0.00,VWS V14.01,2013-01-02 22:20:00,
2013-01-02 16:25:00,44.3,30.5,30.24,NW,323,1.0,8.0,58,0.00,,---,0.00,VWS V14.01,2013-01-02 22:25:00,
2013-01-02 16:30:00,44.3,30.9,30.24,North,356,2.0,3.0,59,0.00,,---,0.00,VWS V14.01,2013-01-02 22:30:00,
2013-01-02 16:35:00,44.2,30.8,30.24,North,356,2.0,5.0,59,0.00,,---,0.00,VWS V14.01,2013-01-02 22:35:00,
2013-01-02 16:40:00,44.2,30.8,30.25,North,358,0.0,7.0,59,0.00,,---,0.00,VWS V14.01,2013-01-02 22:40:00,
2013-01-02 16:45:00,44.1,30.7,30.25,NW,308,4.0,7.0,59,0.00,,---,0.00,VWS V14.01,2013-01-02 22:45:00,
2013-01-02 16:50:00,44.1,31.1,30.25,NNW,334,1.0,7.0,60,0.00,,---,0.00,VWS V14.01,2013-01-02 22:50:00,
2013-01-02 16:55:00,44.1,31.1,30.25,NNE,13,1.0,7.0,60,0.00,,---,0.00,VWS V14.01,2013-01-02 22:55:00,
2013-01-02 17:00:00,44.1,30.3,30.25,NW,322,2.0,3.0,58,0.00,,---,0.00,VWS V14.01,2013-01-02 23:00:00,
2013-01-02 17:05:00,44.0,30.6,30.25,NNE,23,4.0,6.0,59,0.00,,---,0.00,VWS V14.01,2013-01-02 23:05:00,
2013-01-02 17:10:00,44.0,30.6,30.25,NNW,340,0.0,6.0,59,0.00,,---,0.00,VWS V14.01,2013-01-02 23:10:00,
2013-01-02 17:15:00,43.9,30.9,30.24,NNE,30,2.0,6.0,60,0.00,,---,0.00,VWS V14.01,2013-01-02 23:15:00,
2013-01-02 17:20:00,43.8,30.4,30.24,NNW,331,1.0,8.0,59,0.00,,---,0.00,VWS V14.01,2013-01-02 23:20:00,
2013-01-02 17:25:00,43.8,30.8,30.24,NNE,16,0.0,8.0,60,0.00,,---,0.00,VWS V14.01,2013-01-02 23:25:00,
2013-01-02 17:30:00,43.7,31.1,30.25,ESE,103,0.0,0.0,61,0.00,,---,0.00,VWS V14.01,2013-01-02 23:30:00,
2013-01-02 17:35:00,43.7,30.7,30.25,NE,40,1.0,5.0,60,0.00,,---,0.00,VWS V14.01,2013-01-02 23:35:00,
2013-01-02 17:40:00,43.7,30.7,30.25,NNW,335,2.0,5.0,60,0.00,,---,0.00,VWS V14.01,2013-01-02 23:40:00,
2013-01-02 17:45:00,43.6,30.6,30.24,NE,44,2.0,6.0,60,0.00,,---,0.00,VWS V14.01,2013-01-02 23:45:00,
2013-01-02 17:50:00,43.5,30.5,30.24,ENE,70,3.0,6.0,60,0.00,,---,0.00,VWS V14.01,2013-01-02 23:50:00,
2013-01-02 17:55:00,43.4,30.5,30.25,ENE,66,1.0,7.0,60,0.00,,---,0.00,VWS V14.01,2013-01-02 23:55:00,
2013-01-02 18:00:00,43.4,30.5,30.25,NNE,19,1.0,2.0,60,0.00,,---,0.00,VWS V14.01,2013-01-03 00:00:00,
2013-01-02 18:05:00,43.4,30.5,30.25,ENE,58,3.0,4.0,60,0.00,,---,0.00,VWS V14.01,2013-01-03 00:05:00,
2013-01-02 18:10:00,43.4,30.5,30.26,NE,44,1.0,4.0,60,0.00,,---,0.00,VWS V14.01,2013-01-03 00:10:00,
2013-01-02 18:15:00,43.3,30.4,30.26,NNE,27,3.0,5.0,60,0.00,,---,0.00,VWS V14.01,2013-01-03 00:15:00,
2013-01-02 18:20:00,43.3,30.8,30.26,NNE,33,3.0,5.0,61,0.00,,---,0.00,VWS V14.01,2013-01-03 00:20:00,
2013-01-02 18:25:00,43.3,30.8,30.26,NNE,31,2.0,6.0,61,0.00,,---,0.00,VWS V14.01,2013-01-03 00:25:00,
2013-01-02 18:30:00,43.2,30.7,30.26,NE,34,1.0,2.0,61,0.00,,---,0.00,VWS V14.01,2013-01-03 00:30:00,
2013-01-02 18:35:00,43.2,30.7,30.27,NNE,30,5.0,5.0,61,0.00,,---,0.00,VWS V14.01,2013-01-03 00:35:00,
2013-01-02 18:40:00,43.1,30.6,30.27,NE,44,5.0,5.0,61,0.00,,---,0.00,VWS V14.01,2013-01-03 00:40:00,
2013-01-02 18:45:00,43.1,31.0,30.27,ENE,61,1.0,5.0,62,0.00,,---,0.00,VWS V14.01,2013-01-03 00:45:00,
2013-01-02 18:50:00,43.1,31.0,30.27,NNE,24,4.0,5.0,62,0.00,,---,0.00,VWS V14.01,2013-01-03 00:50:00,
2013-01-02 18:55:00,43.0,30.9,30.27,NNE,20,1.0,5.0,62,0.00,,---,0.00,VWS V14.01,2013-01-03 00:55:00,
2013-01-02 19:00:00,43.0,30.9,30.27,NE,46,2.0,2.0,62,0.00,,---,0.00,VWS V14.01,2013-01-03 01:00:00,
2013-01-02 19:05:00,42.9,30.8,30.27,North,8,3.0,5.0,62,0.00,,---,0.00,VWS V14.01,2013-01-03 01:05:00,
2013-01-02 19:10:00,42.9,30.8,30.27,NE,37,4.0,5.0,62,0.00,,---,0.00,VWS V14.01,2013-01-03 01:10:00,
2013-01-02 19:15:00,42.9,30.8,30.27,ENE,67,2.0,5.0,62,0.00,,---,0.00,VWS V14.01,2013-01-03 01:15:00,
2013-01-02 19:20:00,42.9,30.8,30.28,NE,39,2.0,5.0,62,0.00,,---,0.00,VWS V14.01,2013-01-03 01:20:00,
2013-01-02 19:25:00,42.8,31.1,30.27,NNE,30,1.0,5.0,63,0.00,,---,0.00,VWS V14.01,2013-01-03 01:25:00,
2013-01-02 19:30:00,42.8,31.1,30.27,North,356,1.0,2.0,63,0.00,,---,0.00,VWS V14.01,2013-01-03 01:30:00,
2013-01-02 19:35:00,42.7,31.0,30.27,NE,56,3.0,4.0,63,0.00,,---,0.00,VWS V14.01,2013-01-03 01:35:00,
2013-01-02 19:40:00,42.6,31.3,30.28,NNE,26,2.0,4.0,64,0.00,,---,0.00,VWS V14.01,2013-01-03 01:40:00,
2013-01-02 19:45:00,42.6,30.9,30.28,ENE,65,2.0,4.0,63,0.00,,---,0.00,VWS V14.01,2013-01-03 01:45:00,
2013-01-02 19:50:00,42.5,30.8,30.28,NE,56,1.0,4.0,63,0.00,,---,0.00,VWS V14.01,2013-01-03 01:50:00,
2013-01-02 19:55:00,42.5,30.8,30.28,NE,35,1.0,4.0,63,0.00,,---,0.00,VWS V14.01,2013-01-03 01:55:00,
2013-01-02 20:00:00,42.4,30.7,30.28,ENE,60,2.0,4.0,63,0.00,,---,0.00,VWS V14.01,2013-01-03 02:00:00,
2013-01-02 20:05:00,42.3,31.0,30.28,NE,37,2.0,4.0,64,0.00,,---,0.00,VWS V14.01,2013-01-03 02:05:00,
2013-01-02 20:10:00,42.3,31.0,30.28,NE,47,1.0,4.0,64,0.00,,---,0.00,VWS V14.01,2013-01-03 02:10:00,
2013-01-02 20:15:00,42.2,31.3,30.28,NNE,12,0.0,4.0,65,0.00,,---,0.00,VWS V14.01,2013-01-03 02:15:00,
2013-01-02 20:20:00,42.1,31.2,30.28,NNE,30,1.0,4.0,65,0.00,,---,0.00,VWS V14.01,2013-01-03 02:20:00,
2013-01-02 20:25:00,42.0,30.7,30.29,NNE,30,0.0,6.0,64,0.00,,---,0.00,VWS V14.01,2013-01-03 02:25:00,
2013-01-02 20:30:00,42.0,31.1,30.29,NE,39,2.0,2.0,65,0.00,,---,0.00,VWS V14.01,2013-01-03 02:30:00,
2013-01-02 20:35:00,42.0,31.1,30.29,North,356,1.0,2.0,65,0.00,,---,0.00,VWS V14.01,2013-01-03 02:35:00,
2013-01-02 20:40:00,42.0,31.1,30.29,North,1,1.0,4.0,65,0.00,,---,0.00,VWS V14.01,2013-01-03 02:40:00,
2013-01-02 20:45:00,42.0,31.1,30.29,ENE,70,1.0,4.0,65,0.00,,---,0.00,VWS V14.01,2013-01-03 02:45:00,
2013-01-02 20:50:00,41.9,31.0,30.29,NE,49,2.0,4.0,65,0.00,,---,0.00,VWS V14.01,2013-01-03 02:50:00,
2013-01-02 20:55:00,41.9,31.0,30.29,ENE,65,1.0,4.0,65,0.00,,---,0.00,VWS V14.01,2013-01-03 02:55:00,
2013-01-02 21:00:00,41.9,31.4,30.29,NE,49,2.0,2.0,66,0.00,,---,0.00,VWS V14.01,2013-01-03 03:00:00,
2013-01-02 21:05:00,41.9,31.4,30.30,NE,43,2.0,4.0,66,0.00,,---,0.00,VWS V14.01,2013-01-03 03:05:00,
2013-01-02 21:10:00,41.8,31.3,30.30,NNE,32,2.0,4.0,66,0.00,,---,0.00,VWS V14.01,2013-01-03 03:10:00,
2013-01-02 21:15:00,41.8,31.3,30.30,NE,47,0.0,4.0,66,0.00,,---,0.00,VWS V14.01,2013-01-03 03:15:00,
2013-01-02 21:20:00,41.8,31.3,30.30,ENE,67,2.0,4.0,66,0.00,,---,0.00,VWS V14.01,2013-01-03 03:20:00,
2013-01-02 21:25:00,41.7,30.8,30.30,NNE,30,1.0,6.0,65,0.00,,---,0.00,VWS V14.01,2013-01-03 03:25:00,
2013-01-02 21:30:00,41.6,30.7,30.30,NNE,19,6.0,6.0,65,0.00,,---,0.00,VWS V14.01,2013-01-03 03:30:00,
2013-01-02 21:35:00,41.6,30.7,30.31,NNW,329,1.0,6.0,65,0.00,,---,0.00,VWS V14.01,2013-01-03 03:35:00,
2013-01-02 21:40:00,41.6,31.1,30.31,NE,56,0.0,6.0,66,0.00,,---,0.00,VWS V14.01,2013-01-03 03:40:00,
2013-01-02 21:46:00,41.6,31.1,30.31,NE,35,4.0,6.0,66,0.00,,---,0.00,VWS V14.01,2013-01-03 03:46:00,
2013-01-02 21:51:00,41.6,31.1,30.31,North,4,1.0,6.0,66,0.00,,---,0.00,VWS V14.01,2013-01-03 03:51:00,
2013-01-02 21:56:00,41.6,31.1,30.31,NE,38,1.0,6.0,66,0.00,,---,0.00,VWS V14.01,2013-01-03 03:56:00,
2013-01-02 22:01:00,41.6,31.5,30.31,ENE,57,1.0,2.0,67,0.00,,---,0.00,VWS V14.01,2013-01-03 04:01:00,
2013-01-02 22:06:00,41.5,31.4,30.31,ENE,63,4.0,4.0,67,0.00,,---,0.00,VWS V14.01,2013-01-03 04:06:00,
2013-01-02 22:11:00,41.5,31.4,30.31,NNE,26,2.0,4.0,67,0.00,,---,0.00,VWS V14.01,2013-01-03 04:11:00,
2013-01-02 22:16:00,41.5,31.4,30.31,North,6,1.0,4.0,67,0.00,,---,0.00,VWS V14.01,2013-01-03 04:16:00,
2013-01-02 22:21:00,41.4,31.3,30.32,NE,43,2.0,4.0,67,0.00,,---,0.00,VWS V14.01,2013-01-03 04:21:00,
2013-01-02 22:26:00,41.3,31.2,30.31,NE,49,1.0,5.0,67,0.00,,---,0.00,VWS V14.01,2013-01-03 04:26:00,
2013-01-02 22:31:00,41.2,31.5,30.31,NE,37,2.0,4.0,68,0.00,,---,0.00,VWS V14.01,2013-01-03 04:31:00,
2013-01-02 22:36:00,41.0,31.3,30.31,ENE,63,1.0,4.0,68,0.00,,---,0.00,VWS V14.01,2013-01-03 04:36:00,
2013-01-02 22:40:00,40.9,31.5,30.31,ENE,60,1.0,4.0,69,0.00,,---,0.00,VWS V14.01,2013-01-03 04:40:00,
2013-01-02 22:45:00,40.8,31.8,30.31,NE,51,2.0,4.0,70,0.00,,---,0.00,VWS V14.01,2013-01-03 04:45:00,
2013-01-02 22:50:00,40.5,31.5,30.31,NE,54,1.0,4.0,70,0.00,,---,0.00,VWS V14.01,2013-01-03 04:50:00,
2013-01-02 22:55:00,40.3,31.7,30.31,NNE,27,0.0,4.0,71,0.00,,---,0.00,VWS V14.01,2013-01-03 04:55:00,
2013-01-02 23:00:00,40.1,31.5,30.31,NE,54,0.0,4.0,71,0.00,,---,0.00,VWS V14.01,2013-01-03 05:00:00,
2013-01-02 23:01:00,40.1,31.8,30.31,NE,48,1.0,1.0,72,0.00,,---,0.00,VWS V14.01,2013-01-03 05:01:00,
2013-01-02 23:03:00,40.0,31.7,30.31,NE,47,1.0,1.0,72,0.00,,---,0.00,VWS V14.01,2013-01-03 05:03:00,
2013-01-02 23:08:00,39.9,31.6,30.31,ENE,68,1.0,2.0,72,0.00,,---,0.00,VWS V14.01,2013-01-03 05:08:00,
2013-01-02 23:13:00,39.7,31.4,30.31,NNE,27,1.0,2.0,72,0.00,,---,0.00,VWS V14.01,2013-01-03 05:13:00,
2013-01-02 23:18:00,39.7,31.8,30.31,NE,56,2.0,2.0,73,0.00,,---,0.00,VWS V14.01,2013-01-03 05:18:00,
2013-01-02 23:23:00,39.7,31.8,30.31,NE,41,3.0,4.0,73,0.00,,---,0.00,VWS V14.01,2013-01-03 05:23:00,
2013-01-02 23:28:00,39.7,31.8,30.31,NE,46,0.0,4.0,73,0.00,,---,0.00,VWS V14.01,2013-01-03 05:28:00,
2013-01-02 23:33:00,39.7,31.8,30.30,NE,54,3.0,3.0,73,0.00,,---,0.00,VWS V14.01,2013-01-03 05:33:00,
2013-01-02 23:38:00,39.7,31.8,30.31,NNE,13,1.0,3.0,73,0.00,,---,0.00,VWS V14.01,2013-01-03 05:38:00,
2013-01-02 23:43:00,39.7,31.8,30.31,NNE,19,2.0,3.0,73,0.00,,---,0.00,VWS V14.01,2013-01-03 05:43:00,
2013-01-02 23:48:00,39.7,32.1,30.31,NE,50,1.0,3.0,74,0.00,,---,0.00,VWS V14.01,2013-01-03 05:48:00,
2013-01-02 23:53:00,39.7,32.1,30.31,NNW,338,1.0,3.0,74,0.00,,---,0.00,VWS V14.01,2013-01-03 05:53:00,
2013-01-02 23:58:00,39.7,32.1,30.30,ESE,108,0.0,5.0,74,0.00,,---,0.00,VWS V14.01,2013-01-03 05:58:00,